(°C)
25°
26°
25°
24°
23°
21°
20°
(°C)
25°
25°
24°
22°
21°
19°
17°
E
E
N
NNO
NNO
NNO
N
(km/h)
8-17
8-20
8-21
11-18
10-22
9-24
8-23
(mm)
0
0
0
0
0
0
0
(%)
4
5
11
13
13
14
14

Elevación del sol

/ 60.8°
sun-icon
UV 7
05:24
20:58
Menguante (327°)
04:05
17:57

METAR a Innsbruck (LOWI)

Hora Condiciones Temperatura/
Punto de condensación
Viento Visibilidad Tiempo Nubes Presión Cambiar Bruto
VFR 24°C / 12°C 100º variable 030º to 140º 5kt >10km - Few Clouds 6000ft 1018 No Significant change LOWI 271150Z 10005KT 030V140 9999 FEW060 24/12 Q1018 NOSIG
VFR 24°C / 13°C 70º variable 040º to 100º 9kt >10km - Few Clouds 5000ft 1019 No Significant change LOWI 271120Z 07009KT 040V100 9999 FEW050 24/13 Q1019 NOSIG
VFR 23°C / 13°C 90º variable 050º to 150º 6kt >10km - Few Clouds 5000ft 1019 No Significant change LOWI 271050Z 09006KT 050V150 9999 FEW050 23/13 Q1019 NOSIG
VFR 22°C / 13°C variable 6kt >10km - Few Clouds 5000ft 1020 No Significant change LOWI 271020Z VRB06KT 9999 FEW050 22/13 Q1020 NOSIG
VFR 22°C / 12°C 90º variable 040º to 160º 6kt >10km - Few Clouds 4500ft 1020 No Significant change LOWI 270950Z 09006KT 040V160 9999 FEW045 22/12 Q1020 NOSIG
VFR 21°C / 13°C 90º variable 030º to 150º 4kt >10km - Few Clouds 4500ft 1021 No Significant change LOWI 270920Z 09004KT 030V150 9999 FEW045 21/13 Q1021 NOSIG
VFR 20°C / 11°C variable 3kt >10km - Few Clouds 4000ft 1021 No Significant change LOWI 270850Z VRB03KT 9999 FEW040 20/11 Q1021 NOSIG
VFR 19°C / 11°C variable 2kt >10km - Few Clouds 4000ft 1022 No Significant change LOWI 270820Z VRB02KT 9999 FEW040 19/11 Q1022 NOSIG
VFR 18°C / 11°C 300º variable 260º to 360º 3kt >10km - Few Clouds 4000ft 1022 No Significant change LOWI 270750Z 30003KT 260V360 9999 FEW040 18/11 Q1022 NOSIG
VFR 17°C / 11°C variable 2kt >10km - Few Clouds 4000ft 1022 No Significant change LOWI 270720Z VRB02KT 9999 FEW040 17/11 Q1022 NOSIG
VFR 16°C / 11°C variable 2kt >10km - Few Clouds 3000ft 1023 No Significant change LOWI 270650Z VRB02KT 9999 FEW030 16/11 Q1023 NOSIG
VFR 15°C / 11°C variable 2kt >10km - Few Clouds 2000ft 1023 No Significant change LOWI 270620Z VRB02KT 9999 FEW020 15/11 Q1023 NOSIG
VFR 15°C / 11°C variable 2kt >10km - Few Clouds 3500ft 1024 No Significant change LOWI 270550Z VRB02KT 9999 FEW035 15/11 Q1024 NOSIG
VFR 15°C / 11°C variable 2kt >10km - Few Clouds 3500ft
Scattered Clouds 5000ft
1024 No Significant change LOWI 270520Z VRB02KT 9999 FEW035 SCT050 15/11 Q1024 NOSIG
VFR 13°C / 11°C 300º 4kt >10km - Few Clouds 3500ft
Broken Clouds 5000ft
1024 No Significant change LOWI 270450Z 30004KT 9999 FEW035 BKN050 13/11 Q1024 NOSIG
VFR 12°C / 10°C variable 1kt >10km - Few Clouds 3500ft
Scattered Clouds 5000ft
1024 No Significant change LOWI 270420Z VRB01KT 9999 FEW035 SCT050 12/10 Q1024 NOSIG
VFR 11°C / 10°C variable 1kt >10km - Few Clouds 3500ft
Scattered Clouds 5000ft
1024 No Significant change LOWI 270350Z VRB01KT 9999 FEW035 SCT050 11/10 Q1024 NOSIG
VFR 12°C / 10°C variable 2kt >10km - Few Clouds 4800ft 1024 - LOWI 270320Z AUTO VRB02KT 9999 FEW048 12/10 Q1024
VFR 11°C / 10°C variable 1kt >10km - Few Clouds 5000ft 1023 - LOWI 270250Z AUTO VRB01KT 9999 FEW050 11/10 Q1023
VFR 12°C / 10°C variable 1kt >10km - Few Clouds 5000ft 1023 - LOWI 270220Z AUTO VRB01KT 9999 FEW050 12/10 Q1023
VFR 12°C / 10°C variable 1kt >10km - Few Clouds 4800ft
Broken Clouds 5000ft
1024 - LOWI 270150Z AUTO VRB01KT 9999 FEW048 BKN050 12/10 Q1024
VFR 12°C / 10°C variable 1kt >10km - Few Clouds 5000ft 1024 - LOWI 270120Z AUTO VRB01KT 9999 FEW050 12/10 Q1024
VFR 12°C / 10°C variable 1kt >10km - Few Clouds 5000ft 1024 - LOWI 270050Z AUTO VRB01KT 9999 FEW050 12/10 Q1024
VFR 12°C / 10°C variable 2kt >10km - Few Clouds 5000ft 1024 - LOWI 270020Z AUTO VRB02KT 9999 FEW050 12/10 Q1024

VFR

24°C / 12°C

[Más]
Viento 100º variable 030º to 140º 5kt
Visibilidad >10km
Tiempo -
Nubes Few Clouds 6000ft
Presión 1018
Cambiar No Significant change
Bruto LOWI 271150Z 10005KT 030V140 9999 FEW060 24/12 Q1018 NOSIG

VFR

24°C / 13°C

[Más]
Viento 70º variable 040º to 100º 9kt
Visibilidad >10km
Tiempo -
Nubes Few Clouds 5000ft
Presión 1019
Cambiar No Significant change
Bruto LOWI 271120Z 07009KT 040V100 9999 FEW050 24/13 Q1019 NOSIG

VFR

23°C / 13°C

[Más]
Viento 90º variable 050º to 150º 6kt
Visibilidad >10km
Tiempo -
Nubes Few Clouds 5000ft
Presión 1019
Cambiar No Significant change
Bruto LOWI 271050Z 09006KT 050V150 9999 FEW050 23/13 Q1019 NOSIG

VFR

22°C / 13°C

[Más]
Viento variable 6kt
Visibilidad >10km
Tiempo -
Nubes Few Clouds 5000ft
Presión 1020
Cambiar No Significant change
Bruto LOWI 271020Z VRB06KT 9999 FEW050 22/13 Q1020 NOSIG

VFR

22°C / 12°C

[Más]
Viento 90º variable 040º to 160º 6kt
Visibilidad >10km
Tiempo -
Nubes Few Clouds 4500ft
Presión 1020
Cambiar No Significant change
Bruto LOWI 270950Z 09006KT 040V160 9999 FEW045 22/12 Q1020 NOSIG

VFR

21°C / 13°C

[Más]
Viento 90º variable 030º to 150º 4kt
Visibilidad >10km
Tiempo -
Nubes Few Clouds 4500ft
Presión 1021
Cambiar No Significant change
Bruto LOWI 270920Z 09004KT 030V150 9999 FEW045 21/13 Q1021 NOSIG

VFR

20°C / 11°C

[Más]
Viento variable 3kt
Visibilidad >10km
Tiempo -
Nubes Few Clouds 4000ft
Presión 1021
Cambiar No Significant change
Bruto LOWI 270850Z VRB03KT 9999 FEW040 20/11 Q1021 NOSIG

VFR

19°C / 11°C

[Más]
Viento variable 2kt
Visibilidad >10km
Tiempo -
Nubes Few Clouds 4000ft
Presión 1022
Cambiar No Significant change
Bruto LOWI 270820Z VRB02KT 9999 FEW040 19/11 Q1022 NOSIG

VFR

18°C / 11°C

[Más]
Viento 300º variable 260º to 360º 3kt
Visibilidad >10km
Tiempo -
Nubes Few Clouds 4000ft
Presión 1022
Cambiar No Significant change
Bruto LOWI 270750Z 30003KT 260V360 9999 FEW040 18/11 Q1022 NOSIG

VFR

17°C / 11°C

[Más]
Viento variable 2kt
Visibilidad >10km
Tiempo -
Nubes Few Clouds 4000ft
Presión 1022
Cambiar No Significant change
Bruto LOWI 270720Z VRB02KT 9999 FEW040 17/11 Q1022 NOSIG

VFR

16°C / 11°C

[Más]
Viento variable 2kt
Visibilidad >10km
Tiempo -
Nubes Few Clouds 3000ft
Presión 1023
Cambiar No Significant change
Bruto LOWI 270650Z VRB02KT 9999 FEW030 16/11 Q1023 NOSIG

VFR

15°C / 11°C

[Más]
Viento variable 2kt
Visibilidad >10km
Tiempo -
Nubes Few Clouds 2000ft
Presión 1023
Cambiar No Significant change
Bruto LOWI 270620Z VRB02KT 9999 FEW020 15/11 Q1023 NOSIG

VFR

15°C / 11°C

[Más]
Viento variable 2kt
Visibilidad >10km
Tiempo -
Nubes Few Clouds 3500ft
Presión 1024
Cambiar No Significant change
Bruto LOWI 270550Z VRB02KT 9999 FEW035 15/11 Q1024 NOSIG

VFR

15°C / 11°C

[Más]
Viento variable 2kt
Visibilidad >10km
Tiempo -
Nubes Few Clouds 3500ft
Scattered Clouds 5000ft
Presión 1024
Cambiar No Significant change
Bruto LOWI 270520Z VRB02KT 9999 FEW035 SCT050 15/11 Q1024 NOSIG

VFR

13°C / 11°C

[Más]
Viento 300º 4kt
Visibilidad >10km
Tiempo -
Nubes Few Clouds 3500ft
Broken Clouds 5000ft
Presión 1024
Cambiar No Significant change
Bruto LOWI 270450Z 30004KT 9999 FEW035 BKN050 13/11 Q1024 NOSIG

VFR

12°C / 10°C

[Más]
Viento variable 1kt
Visibilidad >10km
Tiempo -
Nubes Few Clouds 3500ft
Scattered Clouds 5000ft
Presión 1024
Cambiar No Significant change
Bruto LOWI 270420Z VRB01KT 9999 FEW035 SCT050 12/10 Q1024 NOSIG

VFR

11°C / 10°C

[Más]
Viento variable 1kt
Visibilidad >10km
Tiempo -
Nubes Few Clouds 3500ft
Scattered Clouds 5000ft
Presión 1024
Cambiar No Significant change
Bruto LOWI 270350Z VRB01KT 9999 FEW035 SCT050 11/10 Q1024 NOSIG

VFR

12°C / 10°C

[Más]
Viento variable 2kt
Visibilidad >10km
Tiempo -
Nubes Few Clouds 4800ft
Presión 1024
Cambiar -
Bruto LOWI 270320Z AUTO VRB02KT 9999 FEW048 12/10 Q1024

VFR

11°C / 10°C

[Más]
Viento variable 1kt
Visibilidad >10km
Tiempo -
Nubes Few Clouds 5000ft
Presión 1023
Cambiar -
Bruto LOWI 270250Z AUTO VRB01KT 9999 FEW050 11/10 Q1023

VFR

12°C / 10°C

[Más]
Viento variable 1kt
Visibilidad >10km
Tiempo -
Nubes Few Clouds 5000ft
Presión 1023
Cambiar -
Bruto LOWI 270220Z AUTO VRB01KT 9999 FEW050 12/10 Q1023

VFR

12°C / 10°C

[Más]
Viento variable 1kt
Visibilidad >10km
Tiempo -
Nubes Few Clouds 4800ft
Broken Clouds 5000ft
Presión 1024
Cambiar -
Bruto LOWI 270150Z AUTO VRB01KT 9999 FEW048 BKN050 12/10 Q1024

VFR

12°C / 10°C

[Más]
Viento variable 1kt
Visibilidad >10km
Tiempo -
Nubes Few Clouds 5000ft
Presión 1024
Cambiar -
Bruto LOWI 270120Z AUTO VRB01KT 9999 FEW050 12/10 Q1024

VFR

12°C / 10°C

[Más]
Viento variable 1kt
Visibilidad >10km
Tiempo -
Nubes Few Clouds 5000ft
Presión 1024
Cambiar -
Bruto LOWI 270050Z AUTO VRB01KT 9999 FEW050 12/10 Q1024

VFR

12°C / 10°C

[Más]
Viento variable 2kt
Visibilidad >10km
Tiempo -
Nubes Few Clouds 5000ft
Presión 1024
Cambiar -
Bruto LOWI 270020Z AUTO VRB02KT 9999 FEW050 12/10 Q1024

TAF a Innsbruck (LOWI)

From till


Maximum Temperature 27ºC on . Minimum Temperature 14ºC on .
From till Wind 80º 10kt. Visibility 10km or more. Scattered Clouds 5000ft.
Becoming from till Wind variable 3kt. Visibility 10km or more. Scattered Clouds 5000ft.
Temporarly from till Wind 270º 7kt. Light Showers Rain .

Bruto: TAF LOWI 271115Z 2712/2812 08010KT 9999 SCT050 TX27/2714Z TN14/2806Z BECMG 2718/2720 VRB03KT TEMPO 2722/2812 27007KT -SHRA

Radar para Innsbruck

llovizna
Leve
Moderado
Fuerte
Muy fuerte
Granizo

El marcador del lugar se coloca en Innsbruck. Esta animación muestra el radar de precipitaciones hasta la última hora, así como 2h de previsión. Las lloviznas o las nevadas ligeras pueden ser invisibles para el radar. La intensidad de la precipitación está codificada por colores, que van del azul claro al naranja.
Copyright 2022 Deutscher Wetterdienst / meteoblue.

Imágenes actuales de satélite y lluvia para Innsbruck, Austria

El marcador del lugar se coloca en Innsbruck. [Más]

La imagen de satélite en tiempo real se aprovecha de la combinación de bandas de la luz visible y de la luz infrarroja. Cómo se pueden detectar cambios de temperaturas a través de la banda infrarrojo, la imagen no aparece oscura de noche. No obstante, la niebla y las nubes bajas son apenas visibles en las imágenes de infrarrojo ya que las diferencias de temperaturas entre el suelo y la niebla son muy pequeñas, por eso, son casi invisibles durante la noche. Las imágenes de satélite del Meteosat (Europa) son actualizados en tiempo real cada 5 minutos. Las imágenes del GOES-16/GOES-17 (América del Norte y América del Sur) y Himawari (Asia) son actualizadas cada 10 minutos.

La precipitación se estima a partir de radares y satélites. Las estimaciones de precipitación con los satélites son menos precisas de noche que durante el día. Las cruces naranjas identifican lugares donde se detectaron relámpagos (en Europa).

Copyright 2022 EUMETSAT / meteoblue. Datos de relámpagos proporcionados por nowcast.

Volver al principio